This is the latest recevied weather packets stored in our database for station/object WX3I. If no packets are shown the sender has not sent any weather packets the latest 10 day(s).
| Time | Temp. | Humidity | Pressure | Rain* | Wind** | Luminosity | Snow |
|---|---|---|---|---|---|---|---|
| 1777956004 | 16.11° C | 54% | 1012.1 hPa | 0 mm | - | 0 W/m² | - |
| 1777955104 | 16.67° C | 53% | 1012.2 hPa | 0 mm | - | 0 W/m² | - |
| 1777954505 | 16.67° C | 52% | 1012.1 hPa | 0 mm | - | 0 W/m² | - |
| 1777953004 | 16.67° C | 50% | 1011.8 hPa | 0 mm | - | 0 W/m² | - |
| 1777952704 | 16.67° C | 50% | 1011.8 hPa | 0 mm | - | 0 W/m² | - |
| 1777952404 | 17.22° C | 49% | 1011.8 hPa | 0 mm | - | 0 W/m² | - |
| 1777952104 | 17.22° C | 49% | 1011.9 hPa | 0 mm | - | 0 W/m² | - |
| 1777951204 | 17.22° C | 48% | 1012 hPa | 0 mm | - | 0 W/m² | - |
| 1777950905 | 17.22° C | 47% | 1012 hPa | 0 mm | - | 0 W/m² | - |
| 1777950304 | 17.22° C | 47% | 1012 hPa | 0 mm | - | 0 W/m² | - |
| 1777948504 | 17.78° C | 45% | 1012.2 hPa | 0 mm | - | 0 W/m² | - |
| 1777947305 | 17.78° C | 45% | 1012.3 hPa | 0 mm | - | 0 W/m² | - |
| 1777946104 | 18.33° C | 44% | 1012.2 hPa | 0 mm | - | 0 W/m² | - |
| 1777943704 | 18.33° C | 44% | 1012.1 hPa | 0 mm | - | 0 W/m² | - |
| 1777942804 | 18.33° C | 44% | 1011.8 hPa | 0 mm | - | 0 W/m² | - |
| 1777941004 | 18.33° C | 43% | 1011.6 hPa | 0 mm | - | 0 W/m² | - |
| 1777939504 | 19.44° C | 41% | 1011.4 hPa | 0 mm | - | 0 W/m² | - |
| 1777937704 | 20° C | 39% | 1011.4 hPa | 0 mm | - | 53 W/m² | - |
| 1777935604 | 20.56° C | 38% | 1011.3 hPa | 0 mm | - | 163 W/m² | - |
| 1777932304 | 21.11° C | 37% | 1011.4 hPa | 0 mm | - | 432 W/m² | - |
| 1777930804 | 21.11° C | 38% | 1011.6 hPa | 0 mm | - | 530 W/m² | - |
| 1777929904 | 21.11° C | 38% | 1011.6 hPa | 0 mm | - | 589 W/m² | - |
| 1777929604 | 21.11° C | 38% | 1011.6 hPa | 0 mm | - | 609 W/m² | - |
| 1777928404 | 21.11° C | 38% | 1011.5 hPa | 0 mm | - | 688 W/m² | - |
| 1777924204 | 21.67° C | 37% | 1011.9 hPa | 0 mm | - | 943 W/m² | - |
* Rain latest hour (hover to see other rain measurements)
** Current wind speed in m/s (hover to see current wind gust speed)